owner,sensor,date,latitude,longitude,vertical_datum,wind_speed,wind_to_direction,wind_speed_of_gust,qcFlag 
TABS,ioos:station:wmo:42043:1,2005-02-08T15:00:00Z,28.9818,-94.9186,4.0,4.455838866,162.0939224,5.75,'11111222,11111222,11111222' 
TABS,ioos:station:wmo:42043:1,2005-02-08T15:30:00Z,28.9818,-94.9186,4.0,4.377761985,160.2407859,5.31,'11111222,11111222,11111222' 
TABS,ioos:station:wmo:42043:1,2005-02-08T16:00:00Z,28.9818,-94.9186,4.0,5.018724938,159.470937,6.3,'11111222,11111222,11111222' 
TABS,ioos:station:wmo:42043:1,2005-02-08T16:30:00Z,28.9818,-94.9186,4.0,4.196438967,161.9538902,5.49,'11111222,11111222,11111222' 
TABS,ioos:station:wmo:42043:1,2005-02-08T17:00:00Z,28.9818,-94.9186,4.0,4.049691346,159.7753983,5.22,'11111222,11111222,11111222' 
TABS,ioos:station:wmo:42043:1,2005-02-08T17:30:00Z,28.9818,-94.9186,4.0,4.50504162,159.8758949,5.7,'11111222,11111222,11111222' 
TABS,ioos:station:wmo:42043:1,2005-02-08T18:00:00Z,28.9818,-94.9186,4.0,3.889601522,161.5653047,5.08,'11111222,11111222,11111222' 
TABS,ioos:station:wmo:42043:1,2005-02-08T18:30:00Z,28.9818,-94.9186,4.0,3.404776057,150.0466723,4.42,'11111222,11111222,11111222' 
TABS,ioos:station:wmo:42043:1,2005-02-08T19:00:00Z,28.9818,-94.9186,4.0,3.937765864,151.4827169,5.03,'11111222,11111222,11111222' 
TABS,ioos:station:wmo:42043:1,2005-02-08T19:30:00Z,28.9818,-94.9186,4.0,4.480915085,157.842688,5.88,'11111222,11111222,11111222' 
TABS,ioos:station:wmo:42043:1,2005-02-08T20:00:00Z,28.9818,-94.9186,4.0,5.121884419,159.902464,6.64,'11111222,11111222,11111222' 
TABS,ioos:station:wmo:42043:1,2005-02-08T20:30:00Z,28.9818,-94.9186,4.0,5.748886849,163.4251043,7.32,'11111222,11111222,11111222' 
TABS,ioos:station:wmo:42043:1,2005-02-08T21:00:00Z,28.9818,-94.9186,4.0,5.295252591,163.9954011,6.84,'11111222,11111222,11111222' 
TABS,ioos:station:wmo:42043:1,2005-02-08T21:30:00Z,28.9818,-94.9186,4.0,4.806422786,163.563618,6.16,'11111222,11111222,11111222' 
TABS,ioos:station:wmo:42043:1,2005-02-08T22:00:00Z,28.9818,-94.9186,4.0,4.734817842,144.1953412,6.05,'11111222,11111222,11111222' 
TABS,ioos:station:wmo:42043:1,2005-02-08T22:30:00Z,28.9818,-94.9186,4.0,3.952163964,142.6084896,4.55,'11111222,11111222,11111222' 
TABS,ioos:station:wmo:42043:1,2005-02-08T23:00:00Z,28.9818,-94.9186,4.0,3.935695618,146.7139898,4.77,'11111222,11111222,11111222' 
TABS,ioos:station:wmo:42043:1,2005-02-08T23:30:00Z,28.9818,-94.9186,4.0,4.40596187,154.5984249,5.11,'11111222,11111222,11111222' 
TABS,ioos:station:wmo:42043:1,2005-02-09T00:00:00Z,28.9818,-94.9186,4.0,3.868656097,334.0971484,4.4,'11111222,11111222,11111222' 
TABS,ioos:station:wmo:42043:1,2005-02-09T00:30:00Z,28.9818,-94.9186,4.0,3.618839593,336.5517818,4.15,'11111222,11111222,11111222' 
TABS,ioos:station:wmo:42043:1,2005-02-09T01:00:00Z,28.9818,-94.9186,4.0,4.486925451,345.8087262,5.51,'11111222,11111222,11111222' 
TABS,ioos:station:wmo:42043:1,2005-02-09T01:30:00Z,28.9818,-94.9186,4.0,2.848508382,4.429338482,3.37,'11111222,11111222,11111222' 
TABS,ioos:station:wmo:42043:1,2005-02-09T02:00:00Z,28.9818,-94.9186,4.0,2.45277394,5.849831067,2.96,'11111222,11111222,11111222' 
TABS,ioos:station:wmo:42043:1,2005-02-09T02:30:00Z,28.9818,-94.9186,4.0,2.190365266,358.9534101,2.94,'11111222,11111222,11111222' 
TABS,ioos:station:wmo:42043:1,2005-02-09T03:00:00Z,28.9818,-94.9186,4.0,2.661522121,358.0619543,3.18,'11111222,11111222,11111222' 
TABS,ioos:station:wmo:42043:1,2005-02-09T03:30:00Z,28.9818,-94.9186,4.0,2.541830049,13.65330596,3.04,'11111222,11111222,11111222' 
TABS,ioos:station:wmo:42043:1,2005-02-09T04:00:00Z,28.9818,-94.9186,4.0,2.379180531,10.41231037,2.81,'11111222,11111222,11111222' 
TABS,ioos:station:wmo:42043:1,2005-02-09T04:30:00Z,28.9818,-94.9186,4.0,1.921691963,15.69942137,2.42,'11111222,11111222,11111222' 
TABS,ioos:station:wmo:42043:1,2005-02-09T05:00:00Z,28.9818,-94.9186,4.0,1.33555232,11.22556105,1.82,'11111222,11111222,11111222' 
TABS,ioos:station:wmo:42043:1,2005-02-09T05:30:00Z,28.9818,-94.9186,4.0,0.994786409,120.1738704,1.34,'11111222,11111222,11111222' 
TABS,ioos:station:wmo:42043:1,2005-02-09T06:00:00Z,28.9818,-94.9186,4.0,0.813203542,44.50147386,1.2,'11111222,11111222,11111222' 
TABS,ioos:station:wmo:42043:1,2005-02-09T06:30:00Z,28.9818,-94.9186,4.0,0.923092628,112.9544538,1.4,'11111222,11111222,11111222' 
TABS,ioos:station:wmo:42043:1,2005-02-09T07:00:00Z,28.9818,-94.9186,4.0,1.074895344,77.64424811,1.42,'11111222,11111222,11111222' 
TABS,ioos:station:wmo:42043:1,2005-02-09T07:30:00Z,28.9818,-94.9186,4.0,0.417252921,135.9713353,1.01,'11111222,11111222,11111222' 
TABS,ioos:station:wmo:42043:1,2005-02-09T08:00:00Z,28.9818,-94.9186,4.0,0.984123976,227.8830619,2.19,'11111222,11111222,11111222' 
TABS,ioos:station:wmo:42043:1,2005-02-09T08:30:00Z,28.9818,-94.9186,4.0,0.845340168,242.5256326,1.21,'11111222,11111222,11111222' 
TABS,ioos:station:wmo:42043:1,2005-02-09T09:00:00Z,28.9818,-94.9186,4.0,0.174642492,246.3706775,0.76,'11111222,11111222,11111222' 
TABS,ioos:station:wmo:42043:1,2005-02-09T09:30:00Z,28.9818,-94.9186,4.0,0.335261092,107.354405,0.85,'11111222,11111222,11111222' 
TABS,ioos:station:wmo:42043:1,2005-02-09T10:00:00Z,28.9818,-94.9186,4.0,0.989949494,44.99968431,1.56,'11111222,11111222,11111222' 
TABS,ioos:station:wmo:42043:1,2005-02-09T10:30:00Z,28.9818,-94.9186,4.0,1.118302285,12.91757218,1.7,'11111222,11111222,11111222' 
TABS,ioos:station:wmo:42043:1,2005-02-09T11:00:00Z,28.9818,-94.9186,4.0,0.869770085,252.6067185,1.92,'11111222,11111222,11111222' 
TABS,ioos:station:wmo:42043:1,2005-02-09T11:30:00Z,28.9818,-94.9186,4.0,2.316311723,217.8100215,3.37,'11111222,11111222,11111222' 
TABS,ioos:station:wmo:42043:1,2005-02-09T12:00:00Z,28.9818,-94.9186,4.0,2.116908123,234.8085033,2.65,'11111222,11111222,11111222' 
TABS,ioos:station:wmo:42043:1,2005-02-09T12:30:00Z,28.9818,-94.9186,4.0,1.380579588,268.3397215,1.93,'11111222,11111222,11111222' 
TABS,ioos:station:wmo:42043:1,2005-02-09T13:00:00Z,28.9818,-94.9186,4.0,0.756901579,313.3938955,1.27,'11111222,11111222,11111222' 
TABS,ioos:station:wmo:42043:1,2005-02-09T13:30:00Z,28.9818,-94.9186,4.0,0.700357052,9.865573414,1.24,'11111222,11111222,11111222' 
TABS,ioos:station:wmo:42043:1,2005-02-09T14:00:00Z,28.9818,-94.9186,4.0,1.116646766,231.180015,1.64,'11111222,11111222,11111222' 
TABS,ioos:station:wmo:42043:1,2005-02-09T14:30:00Z,28.9818,-94.9186,4.0,0.730616178,59.57386643,1.38,'11111222,11111222,11111222' 
TABS,ioos:station:wmo:42043:1,2005-02-09T15:00:00Z,28.9818,-94.9186,4.0,2.197839849,161.9774965,2.8,'11111222,11111222,11111222' 
TABS,ioos:station:wmo:42043:1,2005-02-09T15:30:00Z,28.9818,-94.9186,4.0,5.384765547,207.1838162,7.65,'11111222,11111222,11111222' 
TABS,ioos:station:wmo:42043:1,2005-02-09T16:00:00Z,28.9818,-94.9186,4.0,5.63773004,254.7805708,6.93,'11111222,11111222,11111222' 
TABS,ioos:station:wmo:42043:1,2005-02-09T16:30:00Z,28.9818,-94.9186,4.0,7.216661278,357.5378315,8.26,'11111222,11111222,11111222' 
TABS,ioos:station:wmo:42043:1,2005-02-09T17:00:00Z,28.9818,-94.9186,4.0,6.484080505,357.9670012,7.91,'11111222,11111222,11111222' 
TABS,ioos:station:wmo:42043:1,2005-02-09T17:30:00Z,28.9818,-94.9186,4.0,5.90160995,356.4052956,7.23,'11111222,11111222,11111222' 
TABS,ioos:station:wmo:42043:1,2005-02-09T18:00:00Z,28.9818,-94.9186,4.0,5.105643936,357.3055116,6.76,'11111222,11111222,11111222' 
TABS,ioos:station:wmo:42043:1,2005-02-09T18:30:00Z,28.9818,-94.9186,4.0,5.984421442,2.202382552,8.07,'11111222,11111222,11111222' 
TABS,ioos:station:wmo:42043:1,2005-02-09T19:00:00Z,28.9818,-94.9186,4.0,6.701529676,11.79595071,8.71,'11111222,11111222,11111222' 
TABS,ioos:station:wmo:42043:1,2005-02-09T19:30:00Z,28.9818,-94.9186,4.0,6.661231117,6.377960915,9.02,'11111222,11111222,11111222' 
TABS,ioos:station:wmo:42043:1,2005-02-09T20:00:00Z,28.9818,-94.9186,4.0,5.953990259,7.721597285,8.57,'11111222,11111222,11111222' 
TABS,ioos:station:wmo:42043:1,2005-02-09T20:30:00Z,28.9818,-94.9186,4.0,6.013318551,3.813855457,8.26,'11111222,11111222,11111222' 
TABS,ioos:station:wmo:42043:1,2005-02-09T21:00:00Z,28.9818,-94.9186,4.0,6.067462402,4.347786922,8.86,'11111222,11111222,11111222' 
TABS,ioos:station:wmo:42043:1,2005-02-09T21:30:00Z,28.9818,-94.9186,4.0,5.982081578,3.641835243,8.33,'11111222,11111222,11111222' 
TABS,ioos:station:wmo:42043:1,2005-02-09T22:00:00Z,28.9818,-94.9186,4.0,4.731521954,356.0004579,6.88,'11111222,11111222,11111222' 
TABS,ioos:station:wmo:42043:1,2005-02-09T22:30:00Z,28.9818,-94.9186,4.0,5.74,359.9997895,7.55,'11111222,11144222,11111222' 
TABS,ioos:station:wmo:42043:1,2005-02-09T23:00:00Z,28.9818,-94.9186,4.0,5.857798221,5.583846108,8.03,'11111222,11111222,11111222' 
TABS,ioos:station:wmo:42043:1,2005-02-09T23:30:00Z,28.9818,-94.9186,4.0,5.511778297,1.455264112,8.04,'11111222,11111222,11111222' 
TABS,ioos:station:wmo:42043:1,2005-02-10T00:00:00Z,28.9818,-94.9186,4.0,6.405903527,10.43261091,8.23,'11111222,11111222,11111222' 
TABS,ioos:station:wmo:42043:1,2005-02-10T00:30:00Z,28.9818,-94.9186,4.0,5.607040217,5.629026848,7.67,'11111222,11111222,11111222' 
TABS,ioos:station:wmo:42043:1,2005-02-10T01:00:00Z,28.9818,-94.9186,4.0,5.377080993,7.587373778,7.83,'11111222,11111222,11111222' 
TABS,ioos:station:wmo:42043:1,2005-02-10T01:30:00Z,28.9818,-94.9186,4.0,6.505881954,12.15602732,9.12,'11111222,11111222,11111222' 
TABS,ioos:station:wmo:42043:1,2005-02-10T02:00:00Z,28.9818,-94.9186,4.0,7.07978107,13.64343596,9.95,'11111222,11111222,11111222' 
TABS,ioos:station:wmo:42043:1,2005-02-10T02:30:00Z,28.9818,-94.9186,4.0,7.164670265,17.04368362,10.67,'11111222,11111222,11111222' 
TABS,ioos:station:wmo:42043:1,2005-02-10T03:00:00Z,28.9818,-94.9186,4.0,7.157911707,15.72524655,10.53,'11111222,11111222,11111222' 
TABS,ioos:station:wmo:42043:1,2005-02-10T03:30:00Z,28.9818,-94.9186,4.0,8.801931606,9.547701282,11.63,'11111222,11111222,11111222' 
TABS,ioos:station:wmo:42043:1,2005-02-10T04:00:00Z,28.9818,-94.9186,4.0,8.465766356,4.471155258,11.93,'11111222,11111222,11111222' 
TABS,ioos:station:wmo:42043:1,2005-02-10T04:30:00Z,28.9818,-94.9186,4.0,8.795027004,7.973252278,13.62,'11111222,11111222,11111222' 
TABS,ioos:station:wmo:42043:1,2005-02-10T05:00:00Z,28.9818,-94.9186,4.0,7.465929279,7.619771692,12.73,'11111222,11111222,11111222' 
TABS,ioos:station:wmo:42043:1,2005-02-10T05:30:00Z,28.9818,-94.9186,4.0,7.128513169,5.958297009,12.3,'11111222,11111222,11111222' 
TABS,ioos:station:wmo:42043:1,2005-02-10T06:00:00Z,28.9818,-94.9186,4.0,8.225241638,7.755525644,11.84,'11111222,11111222,11111222' 
TABS,ioos:station:wmo:42043:1,2005-02-10T06:30:00Z,28.9818,-94.9186,4.0,6.302324968,4.823818695,11.84,'11111222,11111222,11111222' 
TABS,ioos:station:wmo:42043:1,2005-02-10T07:00:00Z,28.9818,-94.9186,4.0,8.08039603,0.567054625,13.52,'11111222,11111222,11111222' 
TABS,ioos:station:wmo:42043:1,2005-02-10T07:30:00Z,28.9818,-94.9186,4.0,8.42359187,355.7106462,13.26,'11111222,11111222,11111222' 
TABS,ioos:station:wmo:42043:1,2005-02-10T08:00:00Z,28.9818,-94.9186,4.0,8.474963127,350.1484852,12.38,'11111222,11111222,11111222' 
TABS,ioos:station:wmo:42043:1,2005-02-10T08:30:00Z,28.9818,-94.9186,4.0,9.186087306,348.7632767,12.86,'11111222,11111222,11111222' 
TABS,ioos:station:wmo:42043:1,2005-02-10T09:00:00Z,28.9818,-94.9186,4.0,9.04728136,352.5056017,12.56,'11111222,11111222,11111222' 
TABS,ioos:station:wmo:42043:1,2005-02-10T09:30:00Z,28.9818,-94.9186,4.0,9.31752113,342.5761073,12.83,'11111222,11111222,11111222' 
TABS,ioos:station:wmo:42043:1,2005-02-10T10:00:00Z,28.9818,-94.9186,4.0,9.225144985,349.822735,12.82,'11111222,11111222,11111222' 
TABS,ioos:station:wmo:42043:1,2005-02-10T10:30:00Z,28.9818,-94.9186,4.0,9.368991408,340.2884196,12.68,'11111222,11111222,11111222' 
TABS,ioos:station:wmo:42043:1,2005-02-10T11:00:00Z,28.9818,-94.9186,4.0,9.523864762,348.1235529,13.01,'11111222,11111222,11111222' 
TABS,ioos:station:wmo:42043:1,2005-02-10T11:30:00Z,28.9818,-94.9186,4.0,9.77732581,344.0302827,12.77,'11111222,11111222,11111222' 
TABS,ioos:station:wmo:42043:1,2005-02-10T12:00:00Z,28.9818,-94.9186,4.0,9.557201473,343.2144515,12.42,'11111222,11111222,11111222' 
TABS,ioos:station:wmo:42043:1,2005-02-10T12:30:00Z,28.9818,-94.9186,4.0,9.469075984,342.4833726,11.89,'11111222,11111222,11111222' 
TABS,ioos:station:wmo:42043:1,2005-02-10T13:00:00Z,28.9818,-94.9186,4.0,9.566216598,342.0383908,13.11,'11111222,11111222,11111222' 
TABS,ioos:station:wmo:42043:1,2005-02-10T13:30:00Z,28.9818,-94.9186,4.0,9.692703441,341.0975561,12.53,'11111222,11111222,11111222' 
TABS,ioos:station:wmo:42043:1,2005-02-10T14:00:00Z,28.9818,-94.9186,4.0,9.751410154,336.1686042,12.51,'11111222,11111222,11111222' 
TABS,ioos:station:wmo:42043:1,2005-02-10T14:30:00Z,28.9818,-94.9186,4.0,10.26468217,339.110606,12.95,'11111222,11111222,11111222' 
TABS,ioos:station:wmo:42043:1,2005-02-10T15:00:00Z,28.9818,-94.9186,4.0,9.775581824,339.8965503,12.56,'11111222,11111222,11111222' 
TABS,ioos:station:wmo:42043:1,2005-02-10T15:30:00Z,28.9818,-94.9186,4.0,8.931494836,336.6496333,11.79,'11111222,11111222,11111222' 
TABS,ioos:station:wmo:42043:1,2005-02-10T16:00:00Z,28.9818,-94.9186,4.0,9.29796752,337.8208139,11.86,'11111222,11111222,11111222' 
TABS,ioos:station:wmo:42043:1,2005-02-10T16:30:00Z,28.9818,-94.9186,4.0,8.969754735,336.4070426,11.38,'11111222,11111222,11111222' 
TABS,ioos:station:wmo:42043:1,2005-02-10T17:00:00Z,28.9818,-94.9186,4.0,7.877924854,328.1255393,9.92,'11111222,11111222,11111222' 
TABS,ioos:station:wmo:42043:1,2005-02-10T17:30:00Z,28.9818,-94.9186,4.0,7.505391396,330.4632903,10.06,'11111222,11111222,11111222' 
TABS,ioos:station:wmo:42043:1,2005-02-10T18:00:00Z,28.9818,-94.9186,4.0,6.619395743,324.9653049,8.89,'11111222,11111222,11111222' 
TABS,ioos:station:wmo:42043:1,2005-02-10T18:30:00Z,28.9818,-94.9186,4.0,7.384361855,327.3858509,9.25,'11111222,11111222,11111222' 
TABS,ioos:station:wmo:42043:1,2005-02-10T19:00:00Z,28.9818,-94.9186,4.0,7.626565413,328.8943805,9.6,'11111222,11111222,11111222' 
TABS,ioos:station:wmo:42043:1,2005-02-10T19:30:00Z,28.9818,-94.9186,4.0,6.19271346,323.9997095,7.99,'11111222,11111222,11111222' 
TABS,ioos:station:wmo:42043:1,2005-02-10T20:00:00Z,28.9818,-94.9186,4.0,5.859146696,325.0078512,7.24,'11111222,11111222,11111222' 
TABS,ioos:station:wmo:42043:1,2005-02-10T20:30:00Z,28.9818,-94.9186,4.0,5.714017851,327.1441444,7.64,'11111222,11111222,11111222' 
TABS,ioos:station:wmo:42043:1,2005-02-10T21:00:00Z,28.9818,-94.9186,4.0,5.028001591,323.0843969,6.9,'11111222,11111222,11111222' 
TABS,ioos:station:wmo:42043:1,2005-02-10T21:30:00Z,28.9818,-94.9186,4.0,4.57918115,321.8285971,6.08,'11111222,11111222,11111222' 
TABS,ioos:station:wmo:42043:1,2005-02-10T22:00:00Z,28.9818,-94.9186,4.0,3.422864298,314.0529455,4.96,'11111222,11111222,11111222' 
TABS,ioos:station:wmo:42043:1,2005-02-10T22:30:00Z,28.9818,-94.9186,4.0,2.460894146,314.3413531,3.53,'11111222,11111222,11111222' 
TABS,ioos:station:wmo:42043:1,2005-02-10T23:00:00Z,28.9818,-94.9186,4.0,2.635905916,311.3085174,4.07,'11111222,11111222,11111222' 
TABS,ioos:station:wmo:42043:1,2005-02-10T23:30:00Z,28.9818,-94.9186,4.0,2.440758079,313.1736958,3.25,'11111222,11111222,11111222' 
TABS,ioos:station:wmo:42043:1,2005-02-11T00:00:00Z,28.9818,-94.9186,4.0,2.638370709,327.6952298,3.46,'11111222,11111222,11111222' 
TABS,ioos:station:wmo:42043:1,2005-02-11T00:30:00Z,28.9818,-94.9186,4.0,2.088875295,332.3307384,2.84,'11111222,11111222,11111222' 
TABS,ioos:station:wmo:42043:1,2005-02-11T01:00:00Z,28.9818,-94.9186,4.0,1.310610545,297.7381148,2.43,'11111222,11111222,11111222' 
TABS,ioos:station:wmo:42043:1,2005-02-11T01:30:00Z,28.9818,-94.9186,4.0,1.25876924,255.742998,1.9,'11111222,11111222,11111222' 
TABS,ioos:station:wmo:42043:1,2005-02-11T02:00:00Z,28.9818,-94.9186,4.0,1.237133784,212.791014,1.93,'11111222,11111222,11111222' 
TABS,ioos:station:wmo:42043:1,2005-02-11T02:30:00Z,28.9818,-94.9186,4.0,2.171174797,264.1843871,2.88,'11111222,11111222,11111222' 
TABS,ioos:station:wmo:42043:1,2005-02-11T03:00:00Z,28.9818,-94.9186,4.0,1.816480113,241.7420365,2.67,'11111222,11111222,11111222' 
TABS,ioos:station:wmo:42043:1,2005-02-11T03:30:00Z,28.9818,-94.9186,4.0,1.857336803,211.1226079,2.72,'11111222,11111222,11111222' 
TABS,ioos:station:wmo:42043:1,2005-02-11T04:00:00Z,28.9818,-94.9186,4.0,1.955019181,274.1064876,2.59,'11111222,11111222,11111222' 
TABS,ioos:station:wmo:42043:1,2005-02-11T04:30:00Z,28.9818,-94.9186,4.0,2.471942556,290.8544093,3.17,'11111222,11111222,11111222' 
TABS,ioos:station:wmo:42043:1,2005-02-11T05:00:00Z,28.9818,-94.9186,4.0,4.998409747,327.1682174,6.12,'11111222,11111222,11111222' 
TABS,ioos:station:wmo:42043:1,2005-02-11T05:30:00Z,28.9818,-94.9186,4.0,4.968068035,323.4298318,6.16,'11111222,11111222,11111222' 
TABS,ioos:station:wmo:42043:1,2005-02-11T06:00:00Z,28.9818,-94.9186,4.0,5.9356634,334.5572543,8.21,'11111222,11111222,11111222' 
TABS,ioos:station:wmo:42043:1,2005-02-11T06:30:00Z,28.9818,-94.9186,4.0,5.923546235,331.7908148,7.45,'11111222,11111222,11111222' 
TABS,ioos:station:wmo:42043:1,2005-02-11T07:00:00Z,28.9818,-94.9186,4.0,6.241874718,335.2824064,7.88,'11111222,11111222,11111222' 
TABS,ioos:station:wmo:42043:1,2005-02-11T07:30:00Z,28.9818,-94.9186,4.0,6.700089552,338.6430668,8.35,'11111222,11111222,11111222' 
TABS,ioos:station:wmo:42043:1,2005-02-11T08:00:00Z,28.9818,-94.9186,4.0,4.902295381,324.8833789,6.22,'11111222,11111222,11111222' 
TABS,ioos:station:wmo:42043:1,2005-02-11T08:30:00Z,28.9818,-94.9186,4.0,5.254559924,324.9185222,6.84,'11111222,11111222,11111222' 
TABS,ioos:station:wmo:42043:1,2005-02-11T09:00:00Z,28.9818,-94.9186,4.0,5.107220379,327.5544859,6.23,'11111222,11111222,11111222' 
TABS,ioos:station:wmo:42043:1,2005-02-11T09:30:00Z,28.9818,-94.9186,4.0,5.241831741,334.216945,6.61,'11111222,11111222,11111222' 
TABS,ioos:station:wmo:42043:1,2005-02-11T10:00:00Z,28.9818,-94.9186,4.0,4.57132366,321.7511369,6.22,'11111222,11111222,11111222' 
TABS,ioos:station:wmo:42043:1,2005-02-11T10:30:00Z,28.9818,-94.9186,4.0,4.130871579,320.993486,5.13,'11111222,11111222,11111222' 
TABS,ioos:station:wmo:42043:1,2005-02-11T11:00:00Z,28.9818,-94.9186,4.0,4.634759972,325.7269209,5.73,'11111222,11111222,11111222' 
TABS,ioos:station:wmo:42043:1,2005-02-11T11:30:00Z,28.9818,-94.9186,4.0,5.226901568,327.7388544,6.46,'11111222,11111222,11111222' 
TABS,ioos:station:wmo:42043:1,2005-02-11T12:00:00Z,28.9818,-94.9186,4.0,6.037549172,333.8592049,6.95,'11111222,11111222,11111222' 
TABS,ioos:station:wmo:42043:1,2005-02-11T12:30:00Z,28.9818,-94.9186,4.0,6.324088867,331.1652479,7.47,'11111222,11111222,11111222' 
TABS,ioos:station:wmo:42043:1,2005-02-11T13:00:00Z,28.9818,-94.9186,4.0,5.479425152,329.269232,6.73,'11111222,11111222,11111222' 
TABS,ioos:station:wmo:42043:1,2005-02-11T13:30:00Z,28.9818,-94.9186,4.0,5.244806955,322.1248945,6.27,'11111222,11111222,11111222' 
TABS,ioos:station:wmo:42043:1,2005-02-11T14:00:00Z,28.9818,-94.9186,4.0,5.878996513,329.2032451,6.97,'11111222,11111222,11111222' 
TABS,ioos:station:wmo:42043:1,2005-02-11T14:30:00Z,28.9818,-94.9186,4.0,5.239971374,319.2562702,6.33,'11111222,11111222,11111222' 
TABS,ioos:station:wmo:42043:1,2005-02-11T15:00:00Z,28.9818,-94.9186,4.0,5.774997835,317.3858332,7.26,'11111222,11111222,11111222' 
TABS,ioos:station:wmo:42043:1,2005-02-11T15:30:00Z,28.9818,-94.9186,4.0,5.578476495,317.760744,6.57,'11111222,11111222,11111222' 
TABS,ioos:station:wmo:42043:1,2005-02-11T16:00:00Z,28.9818,-94.9186,4.0,5.953091634,324.2272404,7.06,'11111222,11111222,11111222' 
TABS,ioos:station:wmo:42043:1,2005-02-11T16:30:00Z,28.9818,-94.9186,4.0,5.180009653,323.2405873,6.04,'11111222,11111222,11111222' 
TABS,ioos:station:wmo:42043:1,2005-02-11T17:00:00Z,28.9818,-94.9186,4.0,5.08205667,323.4005577,6.31,'11111222,11111222,11111222' 
TABS,ioos:station:wmo:42043:1,2005-02-11T17:30:00Z,28.9818,-94.9186,4.0,4.313560015,321.5890012,5.45,'11111222,11111222,11111222' 
TABS,ioos:station:wmo:42043:1,2005-02-11T18:00:00Z,28.9818,-94.9186,4.0,3.71264057,315.7637914,4.67,'11111222,11111222,11111222' 
TABS,ioos:station:wmo:42043:1,2005-02-11T18:30:00Z,28.9818,-94.9186,4.0,3.621739913,313.4336072,4.49,'11111222,11111222,11111222' 
TABS,ioos:station:wmo:42043:1,2005-02-11T19:00:00Z,28.9818,-94.9186,4.0,4.379920091,277.7415815,5.47,'11111222,11111222,11111222' 
TABS,ioos:station:wmo:42043:1,2005-02-11T19:30:00Z,28.9818,-94.9186,4.0,3.693047522,267.6721904,4.64,'11111222,11111222,11111222' 
TABS,ioos:station:wmo:42043:1,2005-02-11T20:00:00Z,28.9818,-94.9186,4.0,3.215042768,273.2094788,3.86,'11111222,11111222,11111222' 
TABS,ioos:station:wmo:42043:1,2005-02-11T20:30:00Z,28.9818,-94.9186,4.0,3.208254977,265.888945,4.14,'11111222,11111222,11111222' 
TABS,ioos:station:wmo:42043:1,2005-02-11T21:00:00Z,28.9818,-94.9186,4.0,3.435767745,262.9784219,4.14,'11111222,11111222,11111222' 
TABS,ioos:station:wmo:42043:1,2005-02-11T21:30:00Z,28.9818,-94.9186,4.0,3.766616519,284.2944636,4.73,'11111222,11111222,11111222' 
TABS,ioos:station:wmo:42043:1,2005-02-11T22:00:00Z,28.9818,-94.9186,4.0,3.060669861,290.8627395,3.91,'11111222,11111222,11111222' 
TABS,ioos:station:wmo:42043:1,2005-02-11T22:30:00Z,28.9818,-94.9186,4.0,3.472880649,301.2183298,4.44,'11111222,11111222,11111222' 
TABS,ioos:station:wmo:42043:1,2005-02-11T23:00:00Z,28.9818,-94.9186,4.0,2.415967715,291.3609702,3.64,'11111222,11111222,11111222' 
TABS,ioos:station:wmo:42043:1,2005-02-11T23:30:00Z,28.9818,-94.9186,4.0,2.513344385,302.4886005,3.39,'11111222,11111222,11111222' 
TABS,ioos:station:wmo:42043:1,2005-02-12T00:00:00Z,28.9818,-94.9186,4.0,1.81694799,302.6404149,2.37,'11111222,11111222,11111222' 
TABS,ioos:station:wmo:42043:1,2005-02-12T00:30:00Z,28.9818,-94.9186,4.0,2.438237068,254.5388184,2.86,'11111222,11111222,11111222' 
TABS,ioos:station:wmo:42043:1,2005-02-12T01:00:00Z,28.9818,-94.9186,4.0,2.547096386,274.2779276,3.08,'11111222,11111222,11111222' 
TABS,ioos:station:wmo:42043:1,2005-02-12T01:30:00Z,28.9818,-94.9186,4.0,2.73016483,270.6295971,3.16,'11111222,11111222,11111222' 
TABS,ioos:station:wmo:42043:1,2005-02-12T02:00:00Z,28.9818,-94.9186,4.0,2.588049459,261.5568288,3.13,'11111222,11111222,11111222' 
TABS,ioos:station:wmo:42043:1,2005-02-12T02:30:00Z,28.9818,-94.9186,4.0,2.945674795,258.8426786,3.28,'11111222,11111222,11111222' 
TABS,ioos:station:wmo:42043:1,2005-02-12T03:00:00Z,28.9818,-94.9186,4.0,2.561952381,257.3741926,3.08,'11111222,11111222,11111222' 
TABS,ioos:station:wmo:42043:1,2005-02-12T03:30:00Z,28.9818,-94.9186,4.0,2.311644436,251.3299562,2.94,'11111222,11111222,11111222' 
TABS,ioos:station:wmo:42043:1,2005-02-12T04:00:00Z,28.9818,-94.9186,4.0,2.855678553,266.3861277,3.41,'11111222,11111222,11111222' 
TABS,ioos:station:wmo:42043:1,2005-02-12T04:30:00Z,28.9818,-94.9186,4.0,2.448060457,280.1164194,2.93,'11111222,11111222,11111222' 
TABS,ioos:station:wmo:42043:1,2005-02-12T05:00:00Z,28.9818,-94.9186,4.0,2.501999201,272.2906047,3.22,'11111222,11111222,11111222' 
TABS,ioos:station:wmo:42043:1,2005-02-12T05:30:00Z,28.9818,-94.9186,4.0,2.131900561,272.4195036,2.49,'11111222,11111222,11111222' 
TABS,ioos:station:wmo:42043:1,2005-02-12T06:00:00Z,28.9818,-94.9186,4.0,0.943398113,291.1246697,1.32,'11111222,11111222,11111222' 
TABS,ioos:station:wmo:42043:1,2005-02-12T06:30:00Z,28.9818,-94.9186,4.0,0.632534584,320.7742072,0.97,'11111222,11111222,11111222' 
TABS,ioos:station:wmo:42043:1,2005-02-12T07:00:00Z,28.9818,-94.9186,4.0,1.895178092,265.7636151,2.21,'11111222,11111222,11111222' 
TABS,ioos:station:wmo:42043:1,2005-02-12T07:30:00Z,28.9818,-94.9186,4.0,1.745451231,281.5674128,2.14,'11111222,11111222,11111222' 
TABS,ioos:station:wmo:42043:1,2005-02-12T08:00:00Z,28.9818,-94.9186,4.0,1.834121043,244.8321887,2.28,'11111222,11111222,11111222' 
TABS,ioos:station:wmo:42043:1,2005-02-12T08:30:00Z,28.9818,-94.9186,4.0,2.128497122,264.8786955,2.77,'11111222,11111222,11111222' 
TABS,ioos:station:wmo:42043:1,2005-02-12T09:00:00Z,28.9818,-94.9186,4.0,2.385812231,278.4357478,2.86,'11111222,11111222,11111222' 
TABS,ioos:station:wmo:42043:1,2005-02-12T09:30:00Z,28.9818,-94.9186,4.0,2.731830888,291.0224038,3.32,'11111222,11111222,11111222' 